When you browse on this site, cookies collect data to enhance your experience and personalize the content and advertising you see.
Visit our Privacy Policy to learn more. By continuing to use the site, you agree to this use of cookies and data.
  • In Portugal
  • List of Countries
  • For 7 days
  • Water Temperature
  • Weather Map
  • Weather Widgets
  • user-avatar
    Login

    Hourly Weather Staraya Mihaylovka

    Today, 26 May, Tuesday

    Time Temperature Precipitation Wind Pressure Humidity
    00:00 +11°C° 0 mm 1 mps 757 mmHg 81%
    01:00 +11°C° 0 mm 1 mps 757 mmHg 81%
    02:00 +10°C° 0 mm 1 mps 757 mmHg 82%
    03:00 +10°C° 0 mm 1 mps 758 mmHg 85%
    04:00 +10°C° 0 mm 2 mps 758 mmHg 86%
    05:00 +10°C° 0 mm 2 mps 758 mmHg 87%
    06:00 +12°C° 0 mm 2 mps 758 mmHg 88%
    07:00 +12°C° 0 mm 3 mps 758 mmHg 85%
    08:00 +13°C° 0 mm 4 mps 758 mmHg 82%
    09:00 +15°C° 0 mm 5 mps 758 mmHg 78%
    10:00 +15°C° 0 mm 5 mps 757 mmHg 75%
    11:00 +16°C° 0 mm 5 mps 757 mmHg 72%
    12:00 +16°C° 0 mm 6 mps 756 mmHg 69%
    13:00 +16°C° 0.1 mm 5 mps 756 mmHg 71%
    14:00 +16°C° 0.1 mm 5 mps 756 mmHg 74%
    15:00 +16°C° 0.1 mm 5 mps 756 mmHg 76%
    16:00 +16°C° 0 mm 5 mps 755 mmHg 76%
    17:00 +15°C° 0 mm 5 mps 755 mmHg 77%
    18:00 +15°C° 0 mm 5 mps 754 mmHg 77%
    19:00 +15°C° 0.1 mm 6 mps 754 mmHg 79%
    20:00 +14°C° 0.1 mm 6 mps 753 mmHg 81%
    21:00 +12°C° 0.1 mm 7 mps 753 mmHg 83%
    22:00 +13°C° 0.6 mm 6 mps 752 mmHg 86%
    23:00 +12°C° 0.6 mm 5 mps 751 mmHg 90%

    Tomorrow, 27 May, Wednesday

    Time Temperature Precipitation Wind Pressure Humidity
    00:00 +12°C° 0.6 mm 4 mps 751 mmHg 93%
    01:00 +12°C° 0.4 mm 5 mps 750 mmHg 94%
    02:00 +10°C° 0.4 mm 5 mps 750 mmHg 95%
    03:00 +10°C° 0.4 mm 5 mps 749 mmHg 96%
    04:00 +10°C° 0.1 mm 5 mps 749 mmHg 96%
    05:00 +11°C° 0.1 mm 4 mps 749 mmHg 96%
    06:00 +11°C° 0.1 mm 4 mps 749 mmHg 96%
    07:00 +11°C° 0 mm 4 mps 749 mmHg 95%
    08:00 +12°C° 0 mm 3 mps 750 mmHg 93%
    09:00 +12°C° 0 mm 3 mps 750 mmHg 92%
    10:00 +13°C° 0 mm 4 mps 750 mmHg 90%
    11:00 +14°C° 0 mm 4 mps 750 mmHg 87%
    12:00 +14°C° 0 mm 4 mps 751 mmHg 84%
    13:00 +15°C° 0 mm 4 mps 751 mmHg 83%
    14:00 +15°C° 0 mm 4 mps 751 mmHg 81%
    15:00 +15°C° 0 mm 4 mps 752 mmHg 79%
    16:00 +15°C° 0 mm 4 mps 752 mmHg 79%
    17:00 +16°C° 0 mm 3 mps 752 mmHg 78%
    18:00 +16°C° 0 mm 3 mps 752 mmHg 78%
    19:00 +15°C° 0 mm 2 mps 752 mmHg 81%
    20:00 +13°C° 0 mm 1 mps 752 mmHg 85%
    21:00 +11°C° 0 mm 0 mps 753 mmHg 88%
    22:00 +11°C° 0 mm 0 mps 753 mmHg 89%
    23:00 +10°C° 0 mm 0 mps 753 mmHg 90%

    Day after tomorrow, 28 May, Thursday

    Time Temperature Precipitation Wind Pressure Humidity
    00:00 +11°C° 0 mm 1 mps 753 mmHg 90%
    01:00 +10°C° 0 mm 0 mps 753 mmHg 91%
    02:00 +9°C° 0 mm 0 mps 753 mmHg 91%
    03:00 +9°C° 0 mm 0 mps 753 mmHg 92%
    04:00 +10°C° 0 mm 0 mps 753 mmHg 91%
    05:00 +11°C° 0 mm 0 mps 753 mmHg 90%
    06:00 +12°C° 0 mm 0 mps 753 mmHg 89%
    07:00 +13°C° 0 mm 0 mps 753 mmHg 83%
    08:00 +15°C° 0 mm 0 mps 754 mmHg 78%
    09:00 +19°C° 0 mm 1 mps 754 mmHg 73%
    10:00 +19°C° 0 mm 1 mps 753 mmHg 69%
    11:00 +20°C° 0 mm 1 mps 753 mmHg 66%
    12:00 +21°C° 0 mm 1 mps 753 mmHg 62%
    13:00 +22°C° 0 mm 1 mps 753 mmHg 61%
    14:00 +22°C° 0 mm 1 mps 753 mmHg 60%
    15:00 +22°C° 0 mm 1 mps 753 mmHg 59%
    16:00 +22°C° 0 mm 1 mps 753 mmHg 64%
    17:00 +21°C° 0 mm 1 mps 753 mmHg 69%
    18:00 +20°C° 0 mm 2 mps 753 mmHg 74%
    19:00 +19°C° 0 mm 2 mps 753 mmHg 77%
    20:00 +17°C° 0 mm 2 mps 753 mmHg 80%
    21:00 +14°C° 0 mm 3 mps 753 mmHg 84%
    22:00 +14°C° 0 mm 3 mps 753 mmHg 84%
    23:00 +13°C° 0 mm 3 mps 753 mmHg 84%

    29 May, Friday

    Time Temperature Precipitation Wind Pressure Humidity
    00:00 +13°C° 0 mm 3 mps 753 mmHg 85%
    01:00 +12°C° 0 mm 3 mps 753 mmHg 86%
    02:00 +12°C° 0 mm 3 mps 753 mmHg 88%
    03:00 +12°C° 0 mm 3 mps 752 mmHg 90%
    04:00 +12°C° 0 mm 3 mps 752 mmHg 88%
    05:00 +13°C° 0 mm 4 mps 752 mmHg 85%
    06:00 +14°C° 0 mm 4 mps 752 mmHg 83%
    07:00 +15°C° 0 mm 4 mps 752 mmHg 79%
    08:00 +17°C° 0 mm 5 mps 752 mmHg 75%
    09:00 +19°C° 0 mm 5 mps 752 mmHg 71%
    10:00 +20°C° 0 mm 5 mps 752 mmHg 70%
    11:00 +21°C° 0 mm 5 mps 751 mmHg 68%
    12:00 +22°C° 0 mm 5 mps 751 mmHg 66%
    13:00 +22°C° 0 mm 5 mps 751 mmHg 66%
    14:00 +23°C° 0 mm 5 mps 751 mmHg 65%
    15:00 +23°C° 0 mm 5 mps 750 mmHg 65%
    16:00 +23°C° 0 mm 4 mps 750 mmHg 69%
    17:00 +22°C° 0 mm 4 mps 750 mmHg 73%
    18:00 +22°C° 0 mm 4 mps 749 mmHg 76%
    19:00 +20°C° 0 mm 4 mps 749 mmHg 80%
    20:00 +18°C° 0 mm 4 mps 749 mmHg 83%
    21:00 +17°C° 0 mm 4 mps 749 mmHg 86%
    22:00 +15°C° 0 mm 4 mps 749 mmHg 88%
    23:00 +14°C° 0 mm 4 mps 749 mmHg 90%

    30 May, Saturday

    Time Temperature Precipitation Wind Pressure Humidity
    00:00 +14°C° 0 mm 3 mps 749 mmHg 92%
    01:00 +13°C° 0 mm 3 mps 748 mmHg 93%
    02:00 +13°C° 0 mm 3 mps 748 mmHg 93%
    03:00 +12°C° 0 mm 3 mps 748 mmHg 94%
    04:00 +13°C° 0 mm 3 mps 747 mmHg 92%
    05:00 +14°C° 0 mm 4 mps 747 mmHg 89%
    06:00 +15°C° 0 mm 4 mps 747 mmHg 87%
    07:00 +17°C° 0 mm 4 mps 747 mmHg 84%
    08:00 +19°C° 0 mm 5 mps 746 mmHg 81%
    09:00 +20°C° 0 mm 5 mps 746 mmHg 78%
    10:00 +22°C° 0 mm 5 mps 746 mmHg 75%
    11:00 +23°C° 0 mm 5 mps 746 mmHg 71%
    12:00 +25°C° 0 mm 5 mps 745 mmHg 67%
    13:00 +26°C° 0 mm 5 mps 745 mmHg 68%
    14:00 +26°C° 0 mm 6 mps 744 mmHg 69%
    15:00 +26°C° 0 mm 6 mps 744 mmHg 70%
    16:00 +26°C° 0 mm 6 mps 743 mmHg 73%
    17:00 +25°C° 0 mm 5 mps 743 mmHg 77%
    18:00 +25°C° 0 mm 5 mps 742 mmHg 81%
    19:00 +23°C° 0 mm 5 mps 742 mmHg 84%
    20:00 +21°C° 0 mm 5 mps 741 mmHg 87%
    21:00 +20°C° 0 mm 5 mps 741 mmHg 91%
    22:00 +20°C° 0.4 mm 4 mps 740 mmHg 91%
    23:00 +20°C° 0.4 mm 4 mps 740 mmHg 91%

    31 May, Sunday

    Time Temperature Precipitation Wind Pressure Humidity
    00:00 +20°C° 0.4 mm 4 mps 740 mmHg 90%
    01:00 +19°C° 2.2 mm 4 mps 739 mmHg 93%
    02:00 +19°C° 2.2 mm 3 mps 739 mmHg 95%
    03:00 +18°C° 2.2 mm 2 mps 739 mmHg 97%
    04:00 +18°C° 0.1 mm 3 mps 739 mmHg 96%
    05:00 +18°C° 0.1 mm 4 mps 740 mmHg 95%
    06:00 +18°C° 0.1 mm 4 mps 740 mmHg 93%
    07:00 +19°C° 0 mm 5 mps 740 mmHg 90%
    08:00 +19°C° 0 mm 6 mps 741 mmHg 88%
    09:00 +20°C° 0 mm 6 mps 741 mmHg 85%
    10:00 +19°C° 0 mm 6 mps 742 mmHg 84%
    11:00 +18°C° 0 mm 7 mps 742 mmHg 82%
    12:00 +18°C° 0 mm 7 mps 742 mmHg 81%
    13:00 +18°C° 0 mm 7 mps 743 mmHg 79%
    14:00 +18°C° 0 mm 7 mps 743 mmHg 78%
    15:00 +18°C° 0 mm 7 mps 743 mmHg 77%
    16:00 +19°C° 0 mm 6 mps 743 mmHg 78%
    17:00 +19°C° 0 mm 6 mps 743 mmHg 79%
    18:00 +17°C° 0 mm 5 mps 743 mmHg 81%
    19:00 +16°C° 0.1 mm 5 mps 743 mmHg 84%
    20:00 +15°C° 0.1 mm 5 mps 744 mmHg 87%
    21:00 +14°C° 0.1 mm 5 mps 744 mmHg 90%
    22:00 +14°C° 0.1 mm 5 mps 744 mmHg 91%
    23:00 +14°C° 0.1 mm 5 mps 744 mmHg 93%
    Show more